Regional Weather Roundup
Issued by NWS

Home | Current Version | Previous Version | Text Only | Print | Product List | Glossary On
Versions: 1 2 3 4 5 6 7 8 9 10 11 12 13 14 15 16 17 18 19 20 21 22 23 24 25 26 27 28 29 30 31 32 33 34 35 36 37 38 39 40 41 42 43 44 45 46 47 48 49 50
000
ASUS42 KTBW 121216
RWRFL
FLORIDA REGIONAL WEATHER ROUNDUP
NATIONAL WEATHER SERVICE TAMPA BAY RUSKIN FL
700 AM EST FRI FEB 12 2016

NOTE: "FAIR" INDICATES FEW OR NO CLOUDS BELOW 12,000 FEET WITH NO
SIGNIFICANT WEATHER AND/OR OBSTRUCTIONS TO VISIBILITY.


FLZ001>010-012>015-112-114-115-121300-
PANHANDLE FLORIDA

CITY           SKY/WX    TMP DP  RH WIND       PRES   REMARKS
PENSACOLA      CLEAR     59  56  89 W13       30.19R
PENSACOLA NAS  PTCLDY    60  56  86 W6        30.20R
MILTON NAS     MOCLDY    58  56  93 W10       30.19
CRESTVIEW      MOCLDY    56  55  97 W6        30.20S
DUKE FIELD     CLOUDY    59  56  89 W8        30.18R
VALPARAISO     MOCLDY    60  57  88 W9        30.19R
MARY ESTHER    CLEAR     60  56  85 W9        30.19
TRI COUNTY     FAIR      56  55  97 SW7       30.19S
PANAMA CITY    MOCLDY    63  58  83 SW13G22   30.19R
TYNDALL AFB    CLEAR     61  57  89 W10       30.21R
APALACHICOLA   CLEAR     60  58  92 W10       30.21R

STATION/POSITION SKY/WX   TEMP    WIND        PRES    WAVE   SWELL
                          AIR SEA DIR/SP/G            HT/PER HT/PER
                          (F)     (DEG/KT/KT) (MB)    (FT/S) (FT/S)
30.1N   87.6W              64 64  260/ 17/ 21 1022.1R   4/ 6
28.8N   86.0W              68 68  260/ 16/ 17 1024.1R   4/ 6
PANAMA CITY BEAC           62 60  260/ 15/ 16 1022.4
CAPE SAN BLAS    NOT AVBL
TOWER C          NOT AVBL
28.5N   84.5W              67 66  250/ 16/ 19 1024.1R   4/ 6

$$
FLZ011-016>038-118-127-128-134-139-239-121300-
NORTH FLORIDA

CITY           SKY/WX    TMP DP  RH WIND       PRES   REMARKS
MARIANNA       MOCLDY    59  57  93 W14G23    30.17R
TALLAHASSEE    FOG       45  43  93 CALM      30.20R VSB 3/4
PERRY          PTCLDY    55  54  95 S5        30.22R
LIVE OAK         N/A     50  50 100 CALM      30.23R
CROSS CITY       N/A     48  46  93 CALM      30.22S
LAKE CITY      FOG       46  46 100 CALM      30.22R VSB 1/4
GAINESVILLE    CLEAR     47  45  93 S3        30.23R
WILLISTON      CLOUDY    48  46  93 CALM      30.26R VSB 1/2
KEYSTONE HEIGH FAIR      48  48 100 S3        30.23S
PALATKA        CLOUDY    45  45 100 CALM      30.25R
MAYPORT NAS    MOCLDY    50  48  93 S8        30.22R
JACKSONVILLE   PTCLDY    50  49  96 SW7       30.21R
JAX NAS        PTCLDY    52  49  89 S8        30.23R
JAX CRAIG      PTCLDY    52  50  93 S5        30.22R
JAX CECIL      PTCLDY    43  43 100 S3        30.22R
FERNANDINA BEA MOCLDY    55  52  88 SW7       30.20R
ST AUGUSTINE   CLEAR     49  48  97 S6        30.25R

STATION/POSITION SKY/WX   TEMP    WIND        PRES    WAVE   SWELL
                          AIR SEA DIR/SP/G            HT/PER HT/PER
                          (F)     (DEG/KT/KT) (MB)    (FT/S) (FT/S)
SHELL POINT                56     220/  6/  6 1021.1
KEATON BEACH               55     210/  2/  3 1023.1R
CEDAR KEY                  57     250/  6/  9 1024.5R
FERNANDINA                 54 53  180/  4/ 10 1022.5
30.7N   81.3W                 56                N/A     2/ 3
MAYPORT                    51 55  210/  5/  6 1022.9
31.4N   80.9W              54 52  210/ 14/ 16 1021.8S   3/ 5
ST AUGUSTINE               50 56  200/  5/  7 1024.8R

$$
FLZ040-043>046-052-053-057-058-063-144-121300-
INTERIOR CENTRAL FLORIDA

CITY           SKY/WX    TMP DP  RH WIND       PRES   REMARKS
THE VILLAGES     N/A     50  50 100 CALM      30.17R
LEESBURG       CLEAR     52  49  89 S6        30.28R
SANFORD        CLEAR     47  45  93 S5        30.28R WCI  45
ORLANDO EXEC   CLEAR     47  43  86 SE5       30.28R WCI  45
ORLANDO INTL   PTCLDY    43  41  93 S3        30.30R
KISSIMMEE      CLEAR     45  45 100 CALM      30.30
WINTER HAVEN   PTCLDY    48  47  96 S5        30.31R FOG
LAKELAND       FOG       43  43 100 CALM      30.30R VSB 1/4
BARTOW         FOG       41 N/A N/A CALM      30.31R VSB 1/4
OKEECHOBEE     PTCLDY    39  37  93 CALM      30.31R

$$
FLZ041-047-054-059-064-141-147-121300-
EAST CENTRAL FLORIDA

CITY           SKY/WX    TMP DP  RH WIND       PRES   REMARKS
ORMOND BEACH   CLEAR     46  46 100 SW6       30.26  WCI  43
DAYTONA BEACH  PTCLDY    47  45  93 S5        30.28R WCI  45
DELAND           N/A     46  46 100 CALM      30.28S
NEW SMYRNA BEA CLEAR     48  46  93 SW5       30.26
JFK SPACE CTR  CLEAR     44  42  92 S5        30.29R WCI  42
TITUSVILLE     CLEAR     39  39 100 S10       30.30  WCI  32
CAPE CANAVERAL CLEAR     44  42  93 S3        30.29R
PATRICK AFB    CLEAR     48  46  92 SW7       30.30R WCI  45
MELBOURNE      CLEAR     46  43  89 S5        30.30R WCI  44
VERO BEACH     CLEAR     41  37  86 CALM      30.31R
FT PIERCE      CLEAR     38  38 100 CALM      30.31R
STUART         CLEAR     48  41  76 CALM      30.31S

STATION/POSITION SKY/WX   TEMP    WIND        PRES    WAVE   SWELL
                          AIR SEA DIR/SP/G            HT/PER HT/PER
                          (F)     (DEG/KT/KT) (MB)    (FT/S) (FT/S)
28.5N   80.2W              61 74  260/  8/ 10 1025.8R
28.9N   78.5W              68 72              1025.3R
TRIDENT PIER               51 62  200/  5/  6 1025.2
28.4N   80.5W                 63                N/A     1/13
27.5N   80.2W                 67                N/A     2/ 8

$$
FLZ050-056-061-142-242-148-248-149-249-151-251-155-255-
160-260-121300-
WEST CENTRAL FLORIDA

CITY           SKY/WX    TMP DP  RH WIND       PRES   REMARKS
CRYSTAL RIVER  FAIR      46  45  93 CALM      30.27R
INVERNESS      FAIR      48  48 100 CALM      30.27S
BROOKSVILLE    PTCLDY    45  45 100 SE3       30.29R
ZEPHYRHILLS      N/A     40  39  99 CALM      30.30R FOG
CLEARWATER AIR FAIR      50  50 100 S5        30.29R
ST PETE CLEARW CLEAR     50  48  93 S8        30.29R
TAMPA INTL     CLEAR     53  52  96 S5        30.30R
TAMPA EXEC     CLEAR     43  41  93 CALM      30.30R FOG
PLANT CITY     PTCLDY    45  45 100 S3        30.31R
MACDILL AFB    FOG       52  52 100 S2        30.29R VSB 3/4
PETER O KNIGHT CLEAR     55  55 100 S5        30.30R
ST PETERSBURG  CLEAR     54  53  97 SW3       30.28R
SARASOTA       CLEAR     43  43 100 SE8       30.29R FOG     WCI  38
VENICE         FAIR      46  46 100 E3        30.32R FOG

STATION/POSITION SKY/WX   TEMP    WIND        PRES    WAVE   SWELL
                          AIR SEA DIR/SP/G            HT/PER HT/PER
                          (F)     (DEG/KT/KT) (MB)    (FT/S) (FT/S)
CEDAR KEY                  57     250/  6/  9 1024.5R
28.5N   84.5W              67 66  250/ 16/ 19 1024.1R   4/ 6
27.3N   84.2W                 70                N/A     2/ 6
CLEARWATER BEACH           59 56  190/ 10/ 10 1024.7
MIDDLE TAMPA BAY           54     180/  8/  8 1025.5
VENICE                     55 60   90/  6/  6 1025.9R

$$
FLZ066-069-070-075>078-162-262-165-265-121300-
SOUTHWEST FLORIDA AND KEYS

CITY           SKY/WX    TMP DP  RH WIND       PRES   REMARKS
PUNTA GORDA    CLEAR     43  43 100 CALM      30.33R
FT MYERS       CLEAR     47  45  93 CALM      30.31R
SOUTHWEST INTL PTCLDY    47  44  90 CALM      30.32R
NAPLES         CLEAR     48  46  93 NE3       30.30R
MARCO ISLAND   CLEAR     48  39  71 NE6       30.30R
MARATHON       PTCLDY    60  53  77 NE10      30.27R
KEY WEST NAS   PTCLDY    63  58  83 NE9       30.27R
KEY WEST INTL  MOCLDY    63  59  87 NE8       30.27R

STATION/POSITION SKY/WX   TEMP    WIND        PRES    WAVE   SWELL
                          AIR SEA DIR/SP/G            HT/PER HT/PER
                          (F)     (DEG/KT/KT) (MB)    (FT/S) (FT/S)
VENICE                     55 60   90/  6/  6 1025.9R
NAPLES                        63              1025.4R
26.0N   85.6W              69 79  180/  2/  4 1025.5R   1/ 6   2/ 6
DRY TORTUGAS                                    N/A
SAND KEY                   64      50/ 16/ 18 1024.9R
LONG KEY                   61 63   20/ 15/ 17 1025.8R
MOLASSES REEF              62 76   10/ 14/ 15 1024.9R

$$
FLZ067-068-071>074-168-172>174-121300-
SOUTHEAST FLORIDA

CITY           SKY/WX    TMP DP  RH WIND       PRES   REMARKS
W PALM BEACH   PTCLDY    50  42  74 NW3       30.30R
BOCA RATON     CLEAR     52  41  66 N6        30.29
FT LAUDER-EXEC PTCLDY    53  42  66 CALM      30.29R
FT LAUDERDALE  PTCLDY    54  45  71 N5        30.29R
POMPANO BEACH  CLEAR     53  45  74 CALM      30.29R
PEMBROKE PINES CLEAR     53  45  74 N3        30.31R
OPA LOCKA      CLEAR     54  45  71 N3        30.30R
MIAMI          PTCLDY    57  44  62 N3        30.30R
WEST KENDALL   PTCLDY    52  49  89 N3        30.30R
HOMESTEAD      PTCLDY    53  46  76 N5        30.29R

STATION/POSITION SKY/WX   TEMP    WIND        PRES    WAVE   SWELL
                          AIR SEA DIR/SP/G            HT/PER HT/PER
                          (F)     (DEG/KT/KT) (MB)    (FT/S) (FT/S)
PORT EVERGLADES            57  C1F1M1C2F2M2C3F3C4F4M3C5F5M4C6F6M5C7F7M6C8!


USA.gov is the U.S. government's official web portal to all federal, state and local government web resources and services.